Terminal Aerodrome Forecast
Issued by NWS

Home | Current Version | Previous Version | Text Only | Print | Product List | Glossary Off
Versions: 1 2 3 4 5 6 7 8 9 10 11 12 13 14 15

000
FTUS43 KICT 151700
TAFRSL
TAF
KRSL 151735Z 1518/1618 20016G25KT P6SM SKC
     FM160300 17020G26KT P6SM FEW250
     FM161500 24020G30KT P6SM SCT250=

USA.gov is the U.S. government's official web portal to all federal, state and local government web resources and services.